Location: Berg
(47.2344°N, 9.5296°E)
Time: 14:50:53
(UTC+00:00)

Cosmos 44 - Pass Details

Date: 14 May 2021
Orbit: 571 x 791 km, 65.1° (Epoch: 13 June)

Event Time Altitude Azimuth Distance (km) Brightness Sun altitude
Rises 20:11:44 0° 325° (NW) 3,297 8.7 -11.8°
Reaches altitude 10° 20:14:18 10° 332° (NNW) 2,362 7.4 -12.1°
Maximum altitude 20:19:31 44° 44° (NE) 1,073 4.3 -12.7°
Enters shadow 20:23:32 16° 111° (ESE) 1,929 5.0 -13.2°
